NIMBUS 2 DEB

基本信息
目录编号:
26669
目录名称:
NIMBUS 2 DEB
国际标识:
1966-040J
轨道中心:
EARTH
物体状态:
在轨
发射日期:
1966-05-15 UTC
轨道信息
数据来源: 国际轨道数据
星历时间: 2026-07-12T22:42:01+0800
半长轴: 7309.565km
偏心率: 0.0039309
轨道倾角: 100.135°
近地点辐角: 115.722°
升交点赤经: 244.308°
平近点角: 37.643°
近地点: 902.694km
远地点: 960.162km
周期: 103.657分钟
每日圈数: 13.892024
详细信息
发射场:
AFWTR
轨道高度:
LEO
数据来源:
AOE Integration Group
参考系:
TEME
时间系统:
UTC
历元类型:
SGP4
2D轨道图
3D轨道图
轨道高度分析图
轨道倾角分析图
轨道综合分析图
查看轨道综合分析图